East Taunton, MA

3:26 AM EDT on August 26, 2016 (GMT -0400)
Taunton Municipal

Weather History for KTAN - August, 2013

Change the Weather History Date:

Thursday, August 29, 2013

  Actual Average Record
Temperature  
Mean Temperature 62 °F -  
Max Temperature 66 °F 80 °F 95 °F (1953)
Min Temperature 57 °F 58 °F 36 °F (1986)
Degree Days  
Heating Degree Days 4    
Growing Degree Days 12 (Base 50)    
Moisture  
Dew Point 62 °F    
Average Humidity 92    
Maximum Humidity 97    
Minimum Humidity 87    
Precipitation  
Precipitation 0.00 in - - ()
Sea Level Pressure  
Sea Level Pressure 30.02 in    
Wind  
Wind Speed 5 mph (NNE)    
Max Wind Speed 9 mph    
Max Gust Speed -    
Visibility 5 miles    
Events Rain    
Averages and records for this station are not official NWS values.
T = Trace of Precipitation, MM = Missing Value Source: NWS Daily Summary

Daily Weather History Graph

Daily Weather History Graph

Search for Another Location

Airport or City:

Trip Planner

Search our weather history database for the weather conditions in past years. The results will help you decide how hot, cold, wet, or windy it might be!

Date:

Astronomy

Aug. 29, 2013 Rise Set
Actual Time 6:06 AM EDT 7:22 PM EDT
Civil Twilight 5:38 AM EDT 7:50 PM EDT
Nautical Twilight 5:03 AM EDT 8:25 PM EDT
Astronomical Twilight 4:27 AM EDT 9:01 PM EDT
Moon No Moon Rise 2:51 PM EDT (8/29)
Length of Visible Light 14h 12m
Length of Day
13h 15m
Last Quarter, 38% of the Moon is Illuminated
Aug 29
Last Quarter
Sep 5
New
Sep 12
First Quarter
Sep 19
Full
Sep 26
Last Quarter

Hourly Weather History & Observations

Time (EDT) Temp. Dew Point Humidity Pressure Visibility Wind Dir Wind Speed Gust Speed Precip Events Conditions
12:03 AM 64.9 °F 63.0 °F 93% 29.96 in 1.5 mi ENE 4.6 mph - N/A   Overcast
12:26 AM 64.9 °F 63.0 °F 93% 29.96 in 2.5 mi NNE 5.8 mph - N/A   Overcast
12:35 AM 64.9 °F 63.0 °F 93% 29.96 in 3.0 mi Variable 5.8 mph - N/A   Overcast
12:52 AM 64.9 °F 63.0 °F 93% 29.96 in 3.0 mi NNE 4.6 mph - N/A   Overcast
1:52 AM 64.9 °F 63.0 °F 93% 29.95 in 5.0 mi Variable 3.5 mph - N/A   Overcast
2:52 AM 64.9 °F 63.0 °F 93% 29.95 in 4.0 mi Calm Calm - N/A   Overcast
3:52 AM 64.0 °F 63.0 °F 96% 29.95 in 3.0 mi NNE 3.5 mph - N/A   Overcast
4:16 AM 64.9 °F 63.0 °F 93% 29.96 in 2.5 mi NNE 3.5 mph - N/A   Overcast
4:32 AM 64.9 °F 63.0 °F 93% 29.96 in 3.0 mi Calm Calm - N/A   Overcast
4:52 AM 64.9 °F 63.0 °F 93% 29.97 in 5.0 mi North 4.6 mph - N/A   Overcast
5:52 AM 64.9 °F 63.0 °F 93% 29.97 in 8.0 mi North 4.6 mph - N/A   Overcast
6:52 AM 64.9 °F 64.0 °F 97% 29.99 in 3.0 mi Variable 5.8 mph - 0.00 in   Overcast
7:02 AM 64.9 °F 64.0 °F 97% 29.99 in 2.5 mi NE 5.8 mph - N/A   Overcast
7:11 AM 64.9 °F 64.0 °F 97% 29.99 in 3.0 mi NNE 5.8 mph - N/A   Overcast
7:52 AM 66.0 °F 64.0 °F 93% 30.00 in 10.0 mi Variable 6.9 mph - N/A   Overcast
8:35 AM 66.0 °F 64.0 °F 93% 30.02 in 1.8 mi NNE 4.6 mph - N/A   Overcast
8:52 AM 66.0 °F 64.0 °F 93% 30.01 in 1.5 mi NNE 4.6 mph - 0.00 in Rain Light Rain
9:03 AM 66.0 °F 64.0 °F 93% 30.02 in 3.0 mi NNE 6.9 mph - 0.00 in   Overcast
9:39 AM 66.0 °F 64.0 °F 93% 30.02 in 6.0 mi Variable 5.8 mph - 0.00 in   Overcast
9:52 AM 66.0 °F 64.0 °F 93% 30.03 in 7.0 mi NNE 5.8 mph - 0.00 in   Overcast
10:12 AM 66.9 °F 64.0 °F 90% 30.03 in 9.0 mi Variable 5.8 mph - N/A   Overcast
10:35 AM 66.0 °F 63.0 °F 90% 30.03 in 7.0 mi North 9.2 mph - N/A   Overcast
10:52 AM 66.0 °F 63.0 °F 90% 30.04 in 7.0 mi North 8.1 mph - N/A   Overcast
11:30 AM 66.0 °F 63.0 °F 90% 30.04 in 7.0 mi Variable 6.9 mph - N/A   Overcast
11:52 AM 66.0 °F 63.0 °F 90% 30.04 in 7.0 mi Variable 5.8 mph - 0.00 in Rain Light Rain
12:52 PM 66.0 °F 63.0 °F 90% 30.04 in 3.0 mi Variable 5.8 mph - 0.00 in   Overcast
1:23 PM 66.0 °F 63.0 °F 90% 30.03 in 2.0 mi North 6.9 mph - N/A   Overcast
1:52 PM 66.0 °F 63.0 °F 90% 30.03 in 3.0 mi Variable 4.6 mph - N/A   Overcast
2:14 PM 66.0 °F 64.0 °F 93% 30.03 in 2.0 mi Variable 4.6 mph - N/A   Overcast
2:24 PM 66.0 °F 64.0 °F 93% 30.03 in 3.0 mi NNE 5.8 mph - N/A   Overcast
2:33 PM 64.9 °F 63.0 °F 93% 30.03 in 2.0 mi NNE 6.9 mph - N/A   Overcast
2:44 PM 64.9 °F 63.0 °F 93% 30.03 in 1.8 mi NNE 6.9 mph - N/A   Overcast
2:49 PM 66.2 °F 62.6 °F 88% 30.03 in 2.0 mi NNE 4.6 mph - N/A   Overcast
2:52 PM 64.9 °F 63.0 °F 93% 30.03 in 2.0 mi NNE 6.9 mph - N/A   Overcast
3:00 PM 64.9 °F 63.0 °F 93% 30.03 in 1.8 mi Variable 6.9 mph - 0.00 in Rain Light Rain
3:08 PM 64.9 °F 63.0 °F 93% 30.03 in 3.0 mi NNE 9.2 mph - 0.00 in Rain Light Rain
3:19 PM 64.9 °F 63.0 °F 93% 30.03 in 4.0 mi NNE 8.1 mph - 0.00 in   Overcast
3:52 PM 64.9 °F 62.1 °F 90% 30.04 in 6.0 mi Variable 6.9 mph - 0.00 in   Overcast
4:04 PM 64.9 °F 61.0 °F 87% 30.04 in 10.0 mi Variable 6.9 mph - N/A   Overcast
4:52 PM 64.9 °F 61.0 °F 87% 30.04 in 8.0 mi NNE 6.9 mph - N/A   Overcast
5:28 PM 64.0 °F 60.1 °F 87% 30.06 in 5.0 mi NNE 6.9 mph - N/A   Overcast
5:48 PM 64.4 °F 60.8 °F 88% 30.05 in 7.0 mi Variable 4.6 mph - N/A   Overcast
5:52 PM 63.0 °F 60.1 °F 90% 30.06 in 7.0 mi Variable 4.6 mph - N/A   Overcast
6:47 PM 62.6 °F 59.0 °F 88% 30.05 in 10.0 mi Variable 5.8 mph - N/A   Overcast
6:52 PM 63.0 °F 59.0 °F 87% 30.06 in 10.0 mi Variable 4.6 mph - N/A   Overcast
7:22 PM 63.0 °F 59.0 °F 87% 30.05 in 10.0 mi Variable 5.8 mph - N/A   Overcast
7:52 PM 63.0 °F 59.0 °F 87% 30.05 in 10.0 mi Calm Calm - N/A   Overcast
8:48 PM 60.8 °F 57.2 °F 88% 30.05 in 10.0 mi Calm Calm - N/A   Scattered Clouds
8:52 PM 60.1 °F 57.0 °F 90% 30.05 in 10.0 mi Calm Calm - N/A   Partly Cloudy
9:24 PM 57.9 °F 55.9 °F 93% 30.05 in 10.0 mi Calm Calm - N/A   Mostly Cloudy
9:52 PM 59.0 °F 57.0 °F 93% 30.05 in 10.0 mi NW 3.5 mph - N/A   Overcast
10:52 PM 61.0 °F 57.9 °F 90% 30.05 in 10.0 mi NW 3.5 mph - N/A   Overcast
11:52 PM 57.9 °F 55.9 °F 93% 30.02 in 10.0 mi Calm Calm - N/A   Partly Cloudy